Theta_e
350 355 361 360 360 362 362 362 362 363 363 363 363 362 361 361 360 361 362 361 361 361 363 361 363 362 360 360 358 359 359 359 360 360 360 360 359 359 358 358 358 355 358
351 356 361 360 361 361 361 361 362 363 363 363 363 363 361 361 361 361 362 362 361 362 362 361 361 360 359 360 359 359 359 358 360 359 359 359 360 359 360 359 360 358 359
351 355 358 361 361 361 362 361 361 362 363 362 362 362 362 362 362 361 362 361 360 362 359 359 360 359 360 359 359 360 358 360 360 360 358 356 357 360 360 360 359 360 359
352 355 357 362 360 358 358 361 361 361 362 361 362 362 362 360 361 361 362 362 362 364 361 358 359 360 360 360 359 359 359 359 357 355 355 352 355 359 359 360 359 359 359
353 356 360 359 359 358 357 357 359 360 361 360 361 362 361 361 362 362 362 361 361 363 360 360 359 359 359 360 358 358 359 358 356 350 357 358 353 358 359 359 358 359 359
355 356 359 361 359 361 358 358 358 357 359 359 360 361 361 362 361 362 363 362 360 360 359 358 359 359 358 358 360 359 359 358 356 353 352 355 353 355 357 355 357 360 357
352 355 360 362 360 361 360 358 359 358 357 360 359 361 361 360 361 361 362 362 361 360 360 359 360 361 361 360 358 358 358 356 356 356 356 351 352 356 355 354 357 357 358
350 351 359 361 360 360 360 358 359 358 358 359 359 360 361 359 361 363 361 361 360 360 359 361 359 360 360 358 357 357 357 353 351 352 357 350 356 354 354 354 356 357 355
349 354 360 357 361 360 360 359 358 359 358 359 359 359 361 358 360 361 363 361 360 360 358 359 359 359 357 358 357 357 355 357 349 356 353 350 357 354 354 354 353 354 354
351 355 357 360 358 359 359 359 358 358 358 359 360 359 360 359 359 361 363 363 360 359 358 358 358 359 357 359 357 354 355 353 351 354 350 351 358 358 355 353 353 354 357
351 352 356 358 358 359 359 358 358 358 359 359 360 361 360 362 361 360 362 362 360 358 357 357 358 359 359 359 357 357 350 347 346 354 352 354 357 354 356 352 353 353 352
349 352 355 355 356 357 356 360 361 360 360 360 361 362 363 363 360 360 362 361 360 358 358 358 358 357 354 357 359 357 352 351 346 349 349 355 352 351 351 350 350 350 350
349 350 353 356 357 356 358 358 358 359 357 358 360 359 359 360 364 362 359 358 357 353 353 353 354 356 354 358 358 354 354 353 348 347 350 355 357 353 352 350 351 352 352
348 350 354 357 358 359 358 354 355 354 354 352 356 358 357 356 358 358 354 354 354 352 353 354 354 354 355 358 358 354 354 352 350 349 348 353 354 354 352 353 353 352 352
347 350 353 356 358 359 358 358 356 354 353 354 355 356 355 354 356 355 356 354 351 356 357 357 355 353 352 354 359 358 354 355 352 351 350 350 354 355 354 354 354 353 354
347 349 352 353 357 357 356 358 357 358 357 357 356 355 357 355 355 355 355 353 355 359 359 359 358 354 353 354 354 358 357 356 356 354 352 353 351 354 354 354 356 356 356
347 351 351 353 355 356 355 356 357 358 357 357 357 358 356 356 356 358 357 356 357 360 361 361 358 353 352 351 353 356 356 356 356 355 355 355 354 351 354 356 358 358 358
347 351 353 352 355 356 356 356 357 358 357 358 359 357 355 356 355 359 358 355 359 360 360 356 354 350 349 350 350 352 353 354 355 355 356 356 356 353 353 353 353 356 358
349 352 352 354 354 355 357 357 358 359 359 360 360 359 358 356 356 360 356 356 360 359 359 355 354 355 355 354 351 352 352 349 351 351 355 355 356 355 356 358 352 353 355
350 353 353 353 356 357 356 357 356 355 357 359 359 359 358 359 358 361 357 359 360 358 359 358 358 357 352 352 348 349 353 353 352 351 352 353 356 356 356 357 357 357 353
350 351 353 352 355 354 353 351 350 349 353 354 359 360 360 358 359 362 359 358 362 357 359 360 356 356 352 355 350 351 352 353 354 355 356 355 355 356 356 358 358 358 359
349 351 353 353 354 356 355 355 354 351 353 354 357 360 359 359 361 361 362 359 361 356 359 360 359 353 353 355 349 350 341 346 350 352 354 352 353 356 357 358 359 360 362
349 351 352 354 355 356 357 356 355 355 354 349 351 356 358 360 360 361 361 359 363 362 355 359 358 357 349 354 356 347 342 337 344 352 349 350 353 351 351 354 355 359 362
348 351 353 355 355 356 358 356 355 357 353 353 351 356 357 361 360 359 361 361 363 360 360 359 357 358 359 351 357 352 352 350 343 341 351 351 352 349 353 351 352 357 360
349 349 351 354 354 356 358 359 361 358 361 353 353 357 359 361 361 360 361 361 361 359 361 362 361 362 358 355 352 356 357 355 355 346 340 345 351 352 355 355 354 357 358
349 349 350 353 353 355 357 357 357 357 355 352 353 357 362 363 364 361 360 362 362 361 360 360 363 360 361 361 357 355 351 350 349 348 345 346 346 350 355 358 357 358 362
Wind_Speed
8 9 8 9 10 11 10 11 11 12 12 11 13 12 12 12 13 12 13 13 15 15 14 14 14 14 15 15 14 15 15 12 15 14 15 15 15 14 13 11 9 14 13
13 10 8 10 10 11 11 10 11 11 10 11 11 11 11 11 13 13 13 14 15 15 15 16 16 16 15 15 15 15 15 14 15 15 15 15 14 13 14 14 14 13 14
14 12 11 11 11 11 11 9 9 10 10 10 10 11 10 11 12 13 14 15 15 15 16 15 16 15 15 15 15 15 15 15 15 14 11 11 12 15 15 16 16 15 15
13 12 11 11 11 10 9 9 9 9 9 8 9 8 9 12 13 13 15 16 14 15 15 15 14 14 15 14 13 13 14 14 14 10 9 10 12 13 15 16 15 15 15
12 11 11 11 11 10 10 8 8 8 9 8 7 8 9 12 13 13 15 15 14 14 13 12 11 11 11 13 12 12 13 13 11 10 9 8 9 12 14 14 15 16 17
13 11 12 10 10 9 9 9 8 7 7 7 7 8 9 12 12 13 15 14 12 13 11 10 10 9 8 9 12 12 12 10 9 9 9 10 11 12 15 15 14 16 15
13 10 10 10 9 10 9 8 8 9 7 7 7 8 8 9 13 13 14 13 12 11 12 11 12 13 13 12 11 11 11 9 8 8 9 9 11 11 13 13 14 13 14
12 10 10 11 10 9 9 8 8 7 7 7 7 7 8 9 12 12 13 12 11 11 12 13 12 12 11 10 10 9 10 7 8 8 8 9 9 11 12 12 13 14 13
12 9 8 9 10 10 9 8 7 8 7 8 8 6 8 9 11 11 12 12 10 10 11 11 11 9 9 10 9 9 9 8 7 6 7 6 7 10 11 12 11 12 11
10 9 7 7 7 7 7 8 8 8 9 9 9 7 9 9 10 12 9 11 10 9 9 9 8 8 7 8 8 8 8 5 7 6 6 7 6 10 11 10 10 9 10
8 8 8 8 8 7 6 8 8 9 9 9 9 11 7 6 7 10 11 12 10 8 6 6 6 9 7 7 7 8 1 5 4 5 5 7 8 9 10 8 8 8 9
10 9 7 7 8 6 5 6 7 7 6 6 7 7 5 7 7 8 12 12 10 7 6 6 6 5 4 3 4 4 4 4 4 3 4 6 6 6 7 6 6 7 7
10 8 8 7 7 6 5 5 4 4 5 5 6 5 6 5 5 5 5 5 5 5 3 3 2 2 3 2 2 3 4 2 3 3 5 4 6 4 4 4 5 5 6
11 9 8 7 6 5 4 4 4 4 4 5 5 5 4 4 5 4 5 5 4 3 3 3 2 3 3 3 1 1 3 3 3 3 4 3 4 4 4 4 5 5 6
11 9 9 7 6 5 5 4 4 4 4 5 5 5 4 4 5 4 4 4 3 2 3 3 3 4 4 0 2 0 2 3 3 2 2 0 3 4 4 5 5 6 7
10 10 9 8 7 5 5 5 4 3 4 3 3 5 5 4 4 3 4 3 3 3 3 3 4 4 4 4 3 1 1 2 2 2 2 1 3 4 4 5 6 7 8
10 10 10 9 8 6 6 5 4 3 3 3 3 5 6 5 4 2 2 3 2 2 3 3 3 3 3 3 4 1 1 2 1 1 1 2 1 4 5 5 6 7 8
10 11 10 8 9 8 5 5 3 3 3 3 2 3 5 4 3 2 2 4 3 1 2 3 3 3 3 2 2 2 3 3 3 3 2 2 2 3 3 4 6 7 8
11 11 11 9 9 8 6 4 3 3 2 2 2 2 3 3 3 1 3 3 2 2 2 2 3 3 3 1 2 2 3 3 3 2 2 3 3 3 3 1 7 8 8
11 11 10 8 8 8 5 3 2 3 3 1 3 3 4 3 4 2 2 2 2 1 2 3 4 4 3 3 4 3 4 3 3 4 4 3 2 4 3 4 4 2 5
11 11 11 10 9 7 6 5 3 4 4 3 2 3 5 4 4 2 3 3 2 2 4 3 3 4 4 4 3 1 1 2 3 2 2 2 2 3 3 3 3 3 3
13 11 11 11 11 8 6 4 3 4 3 2 3 3 4 5 5 4 3 3 1 3 3 4 4 3 3 5 4 1 3 2 3 4 3 3 4 2 2 2 4 4 4
14 13 11 11 11 10 8 6 4 4 3 4 5 5 5 5 5 4 4 3 2 0 2 3 4 4 3 3 5 3 1 3 4 2 4 3 4 3 4 3 3 3 4
14 13 12 10 10 10 10 8 9 5 4 3 5 5 5 5 6 5 5 4 2 2 3 3 3 3 2 4 1 4 3 3 3 2 2 3 3 4 4 3 3 3 4
14 13 12 10 10 9 9 8 6 6 3 4 4 5 5 5 5 6 5 4 4 3 3 2 3 2 2 3 4 2 2 2 3 3 4 5 3 4 4 3 3 4 4
13 13 13 13 12 10 9 8 7 7 6 5 6 5 4 4 4 5 5 4 4 3 3 3 2 3 3 3 3 3 4 4 4 3 3 3 5 4 4 4 4 4 4
Wind_Direction
156 137 131 120 111 97 90 94 89 88 85 78 77 79 82 82 88 89 90 92 91 95 93 90 97 101 93 87 89 85 83 86 85 94 92 90 86 83 81 80 104 100 109
139 139 135 121 102 105 93 83 82 85 89 83 85 86 89 90 96 93 95 92 91 99 96 83 88 89 92 91 90 85 84 80 78 76 86 90 79 87 89 79 71 91 95
137 137 136 125 115 102 94 102 99 92 93 89 87 88 96 99 99 100 103 98 101 97 95 95 95 90 83 79 79 84 82 79 75 76 76 76 82 73 73 78 81 82 82
136 135 134 120 117 112 107 104 102 101 82 93 95 95 98 108 105 106 103 97 100 100 99 96 93 87 83 87 82 78 79 76 72 69 68 66 75 76 78 79 79 83 88
132 130 128 128 125 122 118 112 102 95 93 84 87 80 90 98 104 103 104 102 97 97 95 94 94 102 86 85 86 81 81 82 77 80 77 69 73 72 79 70 78 72 67
136 136 128 127 123 122 113 117 119 112 111 103 93 90 88 91 98 103 103 102 101 99 93 94 91 98 89 97 85 82 80 79 82 79 76 68 70 65 63 69 69 65 78
136 135 132 132 120 119 114 113 115 122 124 109 108 97 92 104 98 106 104 102 101 89 78 81 91 86 88 87 82 85 86 78 80 76 75 67 69 66 72 75 71 70 64
137 136 130 126 123 117 122 115 112 114 125 120 114 105 105 99 101 105 107 106 98 85 80 79 90 92 90 82 86 87 77 69 75 73 67 66 59 68 69 66 61 60 63
135 135 131 130 123 117 110 114 114 117 121 121 118 109 106 109 102 107 112 108 103 87 85 79 78 90 100 91 95 83 83 68 73 66 76 73 68 70 62 59 58 58 57
134 138 133 119 117 117 121 113 113 115 120 119 112 90 79 95 98 107 115 107 103 93 87 75 72 84 116 96 95 97 84 86 72 72 67 62 29 57 68 58 55 48 46
144 142 144 127 123 116 120 107 110 118 116 110 107 71 84 85 100 112 95 104 98 94 93 91 71 62 91 107 105 94 87 61 57 52 57 40 34 54 55 51 46 38 37
152 151 140 141 128 125 112 105 94 100 102 99 87 84 82 75 99 99 94 99 93 89 81 70 59 62 75 98 103 115 54 63 66 65 63 23 39 44 49 45 37 29 23
158 158 151 139 134 129 114 109 100 110 110 102 99 95 86 83 88 95 103 98 102 69 55 40 27 38 29 31 79 64 61 60 58 58 68 2 357 42 33 28 19 7 1
166 160 153 146 139 122 116 122 114 116 120 118 108 102 101 99 94 92 91 94 90 63 40 16 354 340 296 244 207 113 67 48 50 44 85 357 346 348 360 357 347 345 343
167 165 161 157 150 136 128 123 123 119 126 116 124 104 95 103 98 96 87 94 87 91 75 50 24 20 25 142 206 169 36 34 40 34 39 39 300 315 327 329 329 328 327
170 168 162 166 157 155 142 137 128 130 116 133 138 129 121 116 102 102 96 97 101 56 61 43 24 19 45 52 80 64 351 5 34 14 25 84 268 281 293 306 318 321 317
175 168 170 166 159 162 151 152 151 146 140 141 150 142 140 145 121 93 106 118 85 92 83 64 53 61 66 56 46 38 316 295 345 308 290 314 160 214 275 285 299 304 307
174 175 172 168 162 156 152 154 156 170 139 148 164 159 145 138 130 87 112 102 88 111 78 65 61 81 61 23 4 334 320 294 299 275 269 290 290 308 206 245 291 292 290
179 177 178 174 166 159 156 144 157 169 149 141 166 165 152 136 127 108 151 121 146 123 70 56 77 39 56 11 296 307 291 282 280 295 285 271 280 279 310 198 267 280 287
180 179 184 176 167 156 144 123 130 159 139 148 185 205 170 148 147 128 155 131 127 103 83 58 50 54 39 9 331 322 286 275 276 280 292 276 288 293 308 297 294 297 266
186 180 185 182 174 166 145 160 157 158 164 157 173 195 176 178 166 152 161 154 106 108 63 34 54 52 54 11 318 351 321 279 296 302 301 309 321 282 293 291 299 315 321
189 187 185 191 179 190 165 161 168 157 168 160 179 187 194 181 180 179 172 181 166 114 98 56 44 55 48 24 11 329 13 132 32 28 27 11 19 14 354 297 319 307 302
193 187 189 191 184 182 170 149 125 129 131 174 182 187 198 193 190 190 178 194 174 119 131 69 49 44 57 59 29 357 339 22 331 34 28 28 10 23 26 19 360 328 294
193 186 186 192 187 184 179 183 174 180 177 198 187 179 176 189 186 186 184 192 163 144 135 112 82 34 333 57 110 60 52 10 356 15 85 31 5 27 19 358 1 15 348
183 186 186 184 187 187 193 204 183 176 172 150 173 174 178 183 184 180 181 190 181 188 150 148 133 66 47 48 54 74 72 76 60 357 28 22 88 37 21 5 4 16 14
182 184 185 183 193 192 205 210 209 211 165 166 175 180 182 180 176 177 178 178 191 198 185 176 158 153 95 60 48 43 45 26 30 27 23 10 358 21 19 32 22 17 39